Location: Ferchesar
(52.6477°N, 12.4298°E)
Time: 08:45:39
(UTC+01:00)

Tiros 1 despin weight - Pass Details

Date: 08 December 2021
Orbit: 592 x 641 km, 48.2° (Epoch: 19 January)

Event Time Altitude Azimuth Distance (km) Brightness Sun altitude
Rises 14:04:49 0° 256° (WSW) 2,838 ? 10.0°
Reaches altitude 10° 14:07:10 10° 251° (WSW) 1,930 ? 9.8°
Maximum altitude 14:11:24 47° 177° (S) 785 ? 9.5°
Drops below altitude 10° 14:15:38 10° 104° (ESE) 1,922 ? 9.2°
Sets 14:17:58 0° 98° (E) 2,824 ? 9.0°
